Other Public Products
Issued by NWS Charleston, SC

Current Version | Previous Version | Graphics & Text | Print | Product List | Glossary On
Versions: 1 2 3 4 5 6 7 8 9 10 11 12 13 14 15 16 17 18 19 20 21 22 23 24 25 26 27 28 29 30 31 32 33 34 35 36 37 38 39 40 41 42 43 44 45 46 47 48 49 50
000 FPUS82 KCHS 221327 OPUCHS TEST...KCHS/KSAV Gateway Observations...TEST National Weather Service Charleston SC 800 AM EST WED NOV 22 2017 NOTE: "fair" indicates few or no clouds below 12,000 feet with no significant weather and/or obstructions to visibility. SCZ050-WAZ558-NCZ071-TXZ119-213-PAZ071-DCZ001-FLZ074-172-MI076- NYZ176-178-MAZ016-IL014-TNZ027-NJZ106-GAZ044-MD014-221400- ...Gateway Observations for Charleston International... CITY SKY/WX TMP DP RH WIND PRES REMARKS Chas Airport CLOUDY 60 59 96 NW8 29.99R Seattle CLOUDY 58 57 97 S5 29.96R Charlotte PTCLDY 47 47 100 CALM 30.01R Dallas DFW PTCLDY 41 19 41 N10 30.35R Dallas Love PTCLDY 42 17 36 N10 30.36R Philladelphia CLOUDY 52 50 93 W5 29.92R Wash National CLOUDY 56 40 55 NW9 29.96R Baltimore CLOUDY 50 45 83 W8 29.93R Miami MOSUNNY 75 71 87 CALM 29.95R Detroit MOCLDY 30 15 53 NW9 30.25R WCI 22 Newark LGT RAIN 50 46 86 W6 29.92R Laguardia RAIN 54 50 86 SW5 29.89F FOG J F K RAIN 52 52 100 CALM 29.91F Boston Logan RAIN 50 50 100 CALM 29.95S FOG Ft. Lauderdale MOSUNNY 73 73 100 CALM 29.94R Chicago O`Hare PTCLDY 23 15 71 NW8 30.33R WCI 14 Chicago Midway PTCLDY 23 16 74 W8 30.34R WCI 14 Houston Bush MOCLDY 57 54 89 N14 30.20R Houston Hobby PTCLDY 58 53 84 N14 30.18R Nashville PTCLDY 33 25 72 N7 30.29R WCI 27 Atlanta PTCLDY 48 44 86 NW10 30.04R $$ GAZ044-118-TXZ119-213-NCZ071-DCZ001-MDZ014-506-PAZ021-071-NJZ106- NYZ176-178-MAZ106-OHZ011-021-055-MIZ076-KYZ091-ILZ014-INZ047- MNZ060-ONZ431-221400- ...Gateway Observations for Savannah International... CITY SKY/WX TMP DP RH WIND PRES REMARKS Savannah Arpt FOG 59 59 100 NW5 30.02R VSB 1/4 Atlanta PTCLDY 48 44 86 NW10 30.04R Charlotte PTCLDY 47 47 100 CALM 30.01R Dallas DFW PTCLDY 41 19 41 N10 30.35R Houston Bush MOCLDY 57 54 89 N14 30.20R Wash National CLOUDY 56 40 55 NW9 29.96R Wash Dulles MOCLDY 47 42 83 NW6 29.96S Baltimore CLOUDY 50 45 83 W8 29.93R Philadelphia CLOUDY 52 50 93 W5 29.92R Newark LGT RAIN 50 46 86 W6 29.92R Laguardia RAIN 54 50 86 SW5 29.89F FOG J F K RAIN 52 52 100 CALM 29.91F Boston RAIN 50 50 100 CALM 29.95S FOG Pittsburg LGT SNOW 33 33 100 NW12 30.12R FOG WCI 24 Akron DRIZZLE 33 28 81 N10 30.16R WCI 25 Cleveland CLOUDY 35 24 64 NW13 30.22R WCI 26 Cincinnati MOCLDY 30 26 85 NW7 30.27R WCI 23 Columbus CLOUDY 33 26 76 N10 30.23R WCI 25 Detroit MOCLDY 30 15 53 NW9 30.25R WCI 22 Chicago O`Hare PTCLDY 23 15 71 NW8 30.33R WCI 14 Minneapolis CLOUDY 16 11 80 SW3 30.32F Indianapolis PTCLDY 24 18 77 NW12 30.30R WCI 13 Toronto Canada CLOUDY 32 18 55 NW20 30.11R WCI 20 $$

USA.gov is the U.S. government's official web portal to all federal, state and local government web resources and services.